Regional Weather Roundup
Issued by NWS

Home | Current Version | Previous Version | Text Only | Print | Product List | Glossary Off
Versions: 1 2 3 4 5 6 7 8 9 10 11 12 13 14 15 16 17 18 19 20 21 22 23 24 25 26 27 28 29 30 31 32 33 34 35 36 37 38 39 40 41 42 43 44 45 46 47 48 49 50

000
ASUS43 KMPX 201101
RWRMN
WEATHER ROUNDUP FOR MINNESOTA
NATIONAL WEATHER SERVICE TWIN CITIES/CHANHASSEN MN
600 AM CDT FRI OCT 20 2017


NOTE: "FAIR" INDICATES FEW OR NO CLOUDS BELOW 12,000 FEET WITH NO
SIGNIFICANT WEATHER AND/OR OBSTRUCTIONS TO VISIBILITY. N/A MEANS
CURRENT SKY AND/OR WEATHER CONDITIONS ARE NOT AVAILABLE.

MNZ060>063-068>070-201200-
   Twin Cities Metro

CITY           SKY/WX    TMP DP  RH WIND       PRES   REMARKS
TWIN CITIES    FAIR      54  50  86 SE7       29.89S
ST PAUL        FAIR      51  50  96 SE6       29.91S
CRYSTAL        FAIR      53  47  79 SE7       29.87S
BLAINE         FAIR      54  50  87 S8        29.88S
LAKEVILLE      FAIR      52  48  87 CALM      29.90F
EDEN PRAIRIE   FAIR      58  50  75 S10       29.88S
SOUTH ST PAUL  FAIR      55  49  82 S5        29.90S
LAKE ELMO      FAIR      54  50  87 S8        29.91S
$$
MNZ001>005-007-008-013>017-022>024-027-028-201200-
   Northwest Minnesota

CITY           SKY/WX    TMP DP  RH WIND       PRES   REMARKS
BEMIDJI        FAIR      48  43  84 SE3       29.73S
HALLOCK        FAIR      46  43  87 SE9       29.60F
ROSEAU         FAIR      50  45  81 SE9       29.65F
WARROAD        FAIR      48  45  87 S7        29.67F
CROOKSTON      FAIR      50  45  81 S12       29.64F
FOSSTON        FAIR      55  46  71 SE9       29.68F
DETROIT LAKES  FAIR      50  46  87 SE8       29.71F
MOORHEAD       FAIR      55  48  76 S15       29.66S
PARK RAPIDS    FAIR      48  44  86 S6        29.74F
MAHNOMEN       FAIR      59  48  67 S9        29.67F
$$
MNZ006-009>011-018-025>026-201200-
   North Central Minnesota

CITY           SKY/WX    TMP DP  RH WIND       PRES   REMARKS
BAUDETTE       FAIR      48  42  80 SE7       29.71S
FLAG ISLAND    FAIR      52  43  71 SE3       29.68S
INTL FALLS     FAIR      45  38  76 SE5       29.76S
WASKISH        FAIR      52  45  76 SE6       29.72F
BIG FORK       FAIR      52  43  71 SE3       29.78S
LONGVILLE      FAIR      48  45  87 CALM      29.77F
GRAND RAPIDS   FAIR      51  43  74 SE8       29.82S
CRANE LAKE     FAIR      48  39  71 S5        29.81S
ORR            FAIR      50  37  62 SE3       29.77F
COOK           FAIR      52  41  66 SE3       29.81F
WALKER         FAIR      51  46  82 SE5       29.75S
$$
MNZ012-019>021-037-201200-
   Northeast Minnesota

CITY           SKY/WX    TMP DP  RH WIND       PRES   REMARKS
DULUTH         FAIR      50  45  83 S7        29.86S
ELY            FAIR      48  39  71 S5        29.84S
HIBBING        FAIR      34  33  96 CALM      29.83F
EVELETH        FAIR      37  37 100 CALM      29.85F
DULUTH HARBOR  FAIR      52  46  82 CALM      29.87S
TWO HARBORS    FAIR      43  37  81 CALM      29.85S
SILVER BAY     FAIR      36  34  93 CALM      29.86S
GRAND MARAIS     N/A     42  39  89 N3        29.88S
G MARAIS ARPRT FAIR      37  30  75 CALM      29.89S
$$
MNZ029>031-032-039>041-046>048-054>057-064-201200-
   West Central Minnesota

CITY           SKY/WX    TMP DP  RH WIND       PRES   REMARKS
FERGUS FALLS   FAIR      55  48  76 S14       29.72S
WHEATON        FAIR      54  46  76 SE13      29.71F
MORRIS         FAIR      52  48  87 SE12      29.74S
ALEXANDRIA     FAIR      58  49  72 S9        29.78F
ELBOW LAKE     FAIR      53  49  86 E12       29.74S
WADENA         FAIR      52  46  82 S7        29.75S
GLENWOOD       FAIR      54  48  82 S8        29.79S
APPLETON       FAIR      55  48  76 SE7       29.75F
BENSON         FAIR      55  48  76 S12       29.78F
ORTONVILLE     FAIR      52  46  82 NE8       29.73S
MADISON        FAIR      63  48  59 S10       29.75S
WILLMAR        FAIR      52  48  87 SE7       29.82F
$$
MNZ033>034-036-042>043-049>051-058-059-201200-
   Central Minnesota

CITY           SKY/WX    TMP DP  RH WIND       PRES   REMARKS
ST CLOUD       FAIR      50  49  96 SE9       29.84S
SAUK CENTRE    FAIR      50  47  90 SE9       29.80S
PAYNESVILLE    FAIR      55  49  83 S10       29.82S
AITKIN         FAIR      52  46  82 S7        29.79F
PINE RIVER     FAIR      46  43  87 SE6       29.81F
BRAINERD       FAIR      54  48  80 S12       29.80F
STAPLES        FAIR      52  46  82 SE7       29.77F
LONG PRAIRIE   FAIR      50  46  87 SE9       29.79F
LITTLE FALLS   FAIR      50  43  76 SE5       29.81F
LITCHFIELD     FAIR      55  52  88 CALM      29.84S
BUFFALO        FAIR      56  49  75 S6        29.87S
MAPLE LAKE     FAIR      55  51  87 S6        29.86S
HUTCHINSON     FAIR      54  50  87 S6        29.86S
$$
MNZ037-044-045-052-053-201200-
   East Central Minnesota

CITY           SKY/WX    TMP DP  RH WIND       PRES   REMARKS
PRINCETON      FAIR      54  50  87 SE6       29.85S
MORA           FAIR      41  37  87 CALM      29.87S
CAMBRIDGE      FAIR      55  46  71 SE6       29.86F
RUSH CITY      MOCLDY    52  47  83 S7        29.88S
MOOSE LAKE     FAIR      50  45  81 S3        29.84S
HINCKLEY       FAIR      50  46  87 CALM      29.87S
CLOQUET        FAIR      52  43  71 S3        29.85F
MCGREGOR       FAIR      50  43  76 S6        29.83F
$$
MNZ071>073-080-081-089-090-097-098-201200-
   Southwest Minnesota

CITY           SKY/WX    TMP DP  RH WIND       PRES   REMARKS
MONTEVIDEO     FAIR      55  48  76 S8        29.78S
GRANITE FALLS  FAIR      58  50  76 S9        29.81S
CANBY          FAIR      63  48  59 SW15G21   29.77S
MARSHALL       FAIR      60  48  64 S18G25    29.80S
REDWOOD FALLS  FAIR      58  47  66 S14       29.83S
OLIVIA         FAIR      54  48  82 S8        29.82S
PIPESTONE      FAIR      54  46  76 S12       29.83S
WORTHINGTON    FAIR      57  48  72 S16G22    29.88F
JACKSON        FAIR      54  46  76 S12       29.91S
TRACY          FAIR      60  50  69 S15G23    29.83S
SLAYTON        FAIR      57  48  72 S13G21    29.85F
$$
MNZ065>067-074>077-082>085-091>093-201200-
   South Central Minnesota

CITY           SKY/WX    TMP DP  RH WIND       PRES   REMARKS
MANKATO        FAIR      54  49  83 S8        29.91S
NEW ULM          N/A     52  46  82 S12       29.87S
ST JAMES       FAIR      54  48  82 S8        29.89S
GLENCOE        FAIR      56  50  79 S6        29.86S
FARIBAULT      FAIR      54  48  82 S8        29.92F
OWATONNA       FAIR      55  48  76 S12       29.93F
WASECA         FAIR      54  48  82 S8        29.94S
$$
MNZ078>079-086>088-094>096-201200-
   Southeast Minnesota

CITY           SKY/WX    TMP DP  RH WIND       PRES   REMARKS
ROCHESTER      FAIR      53  50  89 S14       29.98S
RED WING       FAIR      54  46  76 SE7       29.93S
STANTON        FAIR      57  50  77 S8        29.91S
DODGE CENTER   FAIR      55  48  76 S14       29.96S
WINONA         FAIR      55  50  82 SE5       29.99S
AUSTIN         FAIR      52  48  87 S8        29.98S
PRESTON        FAIR      52  48  85 S8        30.01R
$$
ABBREVIATIONS USED IN REMARKS
   TC - TEMPERATURES IN CELSIUS
  WCI - WIND CHILL INDEX
   HX - HEAT INDEX
  VSB - VISIBILITY
$$




USA.gov is the U.S. government's official web portal to all federal, state and local government web resources and services.